Flag for Guinea Weather past 2 weeks in Nzérékoré, Guinea

Now
77 °F

Passing clouds.


Feels Like: 78 °F
Forecast: 57 / 88 °F
Wind: No wind

Location: Roberts Field

Current Time: Dec 25, 2014 at 3:52:40 AM

Latest Report: Dec 25, 2014 at 3:00 AM


Visibility: 5 mi

Pressure: 29.92 "Hg

Humidity: 94%

Dew point: 75 °F

Location of NzérékoréLocation

Historic Weather in Nzérékoré — Graph

°F

Nzérékoré temperature yesterday

Maximum temperature yesterday: 88 °F (at 12:30 PM)
Minimum temperature yesterday: 75 °F (at 5:00 AM)
Average temperature yesterday: 81 °F

Past Weeks' High & Low Weather Summary

 TemperatureHumidityPressure
High122 °F (Dec 12, 11:30 AM)100% (Dec 17, 6:00 AM)29.98 "Hg (Dec 17, 6:00 AM)
Low72 °F (Dec 13, 3:00 AM)7% (Dec 12, 11:30 AM)29.77 "Hg (Dec 12, 4:30 PM)
Average81 °F83%29.88 "Hg
* Reported Dec 10 3:00 AM — Dec 25 2:30 AM, Nzérékoré, Weather by CustomWeather, © 2014

Note: Actual official high and low records may vary slightly from our data, if they occured in-between our weather recording intervals... More about our weather records

Advertising

Nzérékoré weather history for previous 24 hours

 ConditionsComfort  
Time TempWeatherWind HumidityBarometerVisibility
2:30 AM
Dec 25
77 °FPassing clouds.No wind94%29.92 "Hg5 mi
2:00 AM77 °FPassing clouds.No wind94%29.92 "Hg5 mi
1:30 AM77 °FPassing clouds.No wind94%29.92 "Hg5 mi
10:00 PM
Dec 24
79 °FPassing clouds.No wind94%29.92 "Hg6 mi
9:30 PM79 °FPassing clouds.No wind94%29.92 "Hg6 mi
9:00 PM79 °FPassing clouds.No wind94%29.92 "Hg6 mi
8:30 PM79 °FPassing clouds.No wind94%29.89 "Hg6 mi
8:00 PM79 °FPassing clouds.No wind94%29.89 "HgN/A
7:30 PM81 °FPassing clouds.No wind84%29.86 "Hg6 mi
7:00 PM81 °FPassing clouds.No wind84%29.86 "HgN/A
6:30 PM82 °FPassing clouds.No wind79%29.86 "HgN/A
6:00 PM84 °FPassing clouds.3 mph74%29.83 "HgN/A
5:30 PM84 °FPassing clouds.5 mph74%29.83 "HgN/A
5:00 PM86 °FPassing clouds.6 mph70%29.83 "Hg6 mi
4:30 PM88 °FScattered clouds.8 mph66%29.83 "Hg6 mi
4:00 PM88 °FScattered clouds.7 mph70%29.83 "Hg6 mi
3:30 PM86 °FPartly sunny.8 mph75%29.83 "Hg6 mi
3:00 PM88 °FPartly sunny.10 mph70%29.83 "Hg6 mi
2:30 PM86 °FScattered clouds.9 mph70%29.86 "Hg6 mi
2:00 PM86 °FPartly sunny.6 mph75%29.86 "Hg6 mi
1:30 PM88 °FPartly sunny.6 mph70%29.89 "Hg6 mi
1:00 PM86 °FPartly sunny.6 mph75%29.89 "Hg6 mi
12:30 PM88 °FPartly sunny.3 mph66%29.92 "Hg6 mi
12:00 PM86 °FPartly sunny.3 mph75%29.92 "Hg6 mi
11:30 AM86 °FPartly sunny.3 mph75%29.92 "Hg6 mi
11:00 AM86 °FPartly sunny.5 mph75%29.92 "Hg6 mi
10:30 AM84 °FPartly sunny.5 mph79%29.95 "Hg5 mi
10:00 AM82 °FPartly sunny.5 mph84%29.95 "Hg5 mi
9:30 AM81 °FPartly sunny.No wind89%29.95 "Hg5 mi
8:30 AM77 °FPassing clouds.No wind94%29.95 "Hg4 mi
7:30 AM77 °FPassing clouds.3 mph94%29.89 "Hg4 mi
7:00 AM75 °FPassing clouds.3 mph94%29.89 "Hg4 mi
6:30 AM75 °FPassing clouds.No wind94%29.89 "Hg2 mi
6:00 AM75 °FFog.3 mph94%29.89 "Hg3 mi
5:30 AM75 °FClear.No wind94%29.86 "Hg5 mi
5:00 AM75 °FClear.No wind94%29.86 "Hg5 mi
3:30 AM77 °FClear.No wind94%29.89 "Hg5 mi
Weather by CustomWeather, © 2014

See weather overviewHow to use our weather pages